DW8824 Weather Reports


time (UTC)temp
C
wind
direction
speed
KPH
gust
KPH
rain 1hr
cm
rain 24hr
cm
rain mn
cm
humidity
%
barometer
mb
20260505161904 22 174 0.0 4.8 0.00 0.00 0.00 83 1016.6
20260505160904 23 160 0.0 0.0 0.00 0.00 0.00 82 1016.5
20260505160404 23 159 0.0 0.0 0.00 0.00 0.00 82 1016.4
20260505152904 23 155 0.0 4.8 0.00 0.00 0.00 80 1016.3
20260505152404 23 157 1.6 8.0 0.00 0.00 0.00 79 1016.2
20260505151904 23 172 0.0 4.8 0.00 0.00 0.00 79 1016.2
20260505150905 24 100 1.6 12.9 0.00 0.00 0.00 78 1016.0
20260505150404 24 125 1.6 8.0 0.00 0.00 0.00 78 1016.0
20260505140404 25 94 1.6 12.9 0.00 0.00 0.00 76 1015.8
20260505124904 26 114 6.4 22.5 0.00 0.00 0.00 74 1015.3
20260505124404 26 117 9.7 22.5 0.00 0.00 0.00 75 1015.2
20260505123904 26 107 11.3 32.2 0.00 0.00 0.00 74 1015.1
20260505123404 26 101 8.0 22.5 0.00 0.00 0.00 74 1015.1
20260505122904 26 39 4.8 19.3 0.00 0.00 0.00 73 1015.1
20260505122404 26 115 11.3 22.5 0.00 0.00 0.00 73 1015.1
20260505121904 26 114 9.7 22.5 0.00 0.00 0.00 73 1015.0
20260505120904 26 108 8.0 20.9 0.00 0.00 0.00 72 1015.0
20260505120404 26 102 11.3 24.1 0.00 0.00 0.00 72 1014.9
20260505115904 26 113 8.0 22.5 0.00 0.00 0.00 72 1015.0
20260505115404 27 102 1.6 22.5 0.00 0.00 0.00 71 1014.9
20260505114904 27 103 8.0 22.5 0.00 0.00 0.00 71 1014.9
20260505114403 27 98 6.4 24.1 0.00 0.00 0.00 71 1014.9
20260505113904 27 96 14.5 27.4 0.00 0.00 0.00 69 1014.9
20260505113404 27 83 8.0 20.9 0.00 0.00 0.00 69 1014.9
20260505112404 27 129 11.3 22.5 0.00 0.00 0.00 71 1014.9
20260505111904 27 105 9.7 22.5 0.00 0.00 0.00 71 1015.0
20260505110904 27 85 11.3 24.1 0.00 0.00 0.00 69 1015.0
20260505110404 27 80 9.7 22.5 0.00 0.00 0.00 69 1014.9
20260505101905 27 107 4.8 22.5 0.00 0.00 0.00 68 1014.8
20260505101404 27 99 9.7 20.9 0.00 0.00 0.00 67 1014.8
20260505100404 27 145 9.7 19.3 0.00 0.00 0.00 68 1014.8
20260505095904 27 123 9.7 20.9 0.00 0.00 0.00 69 1014.9
20260505095405 27 66 9.7 22.5 0.00 0.00 0.00 69 1014.9
20260505094904 27 85 6.4 22.5 0.00 0.00 0.00 68 1014.9
20260505094404 27 95 6.4 22.5 0.00 0.00 0.00 67 1015.0
20260505093904 27 102 8.0 24.1 0.00 0.00 0.00 69 1015.0
20260505093405 27 76 9.7 22.5 0.00 0.00 0.00 68 1015.0
20260505092904 27 83 3.2 19.3 0.00 0.00 0.00 69 1015.0
20260505091904 27 118 3.2 20.9 0.00 0.00 0.00 69 1015.0
20260505090403 27 102 11.3 22.5 0.00 0.00 0.00 67 1015.4
20260505085905 27 117 8.0 22.5 0.00 0.00 0.00 69 1015.3
20260505085404 27 114 8.0 22.5 0.00 0.00 0.00 65 1015.4
20260505084904 27 86 9.7 25.7 0.00 0.00 0.00 67 1015.5
20260505084404 27 134 12.9 22.5 0.00 0.00 0.00 64 1015.6
20260505083904 27 108 9.7 22.5 0.00 0.00 0.00 66 1015.7
20260505083404 27 141 14.5 27.4 0.00 0.00 0.00 67 1015.7
20260505082905 27 74 9.7 20.9 0.00 0.00 0.00 68 1015.7
20260505082404 27 125 9.7 22.5 0.00 0.00 0.00 69 1015.8
20260505081904 27 124 9.7 25.7 0.00 0.00 0.00 69 1015.8
20260505081404 27 127 11.3 22.5 0.00 0.00 0.00 69 1015.8
20260505080904 27 111 6.4 32.2 0.00 0.00 0.00 69 1016.0
20260505080404 27 130 8.0 25.7 0.00 0.00 0.00 70 1016.0
20260505075904 27 79 3.2 20.9 0.00 0.00 0.00 72 1016.0
20260505075404 27 81 11.3 25.7 0.00 0.00 0.00 70 1016.1
20260505074404 27 141 9.7 27.4 0.00 0.00 0.00 70 1016.0
20260505073904 27 91 11.3 25.7 0.00 0.00 0.00 71 1016.1
20260505073404 26 85 11.3 24.1 0.00 0.00 0.00 71 1016.2
20260505072404 27 110 11.3 32.2 0.00 0.00 0.00 71 1016.4
20260505071904 27 100 9.7 24.1 0.00 0.00 0.00 71 1016.4
20260505071404 26 80 8.0 24.1 0.00 0.00 0.00 72 1016.4
20260505070904 27 106 6.4 29.0 0.00 0.00 0.00 72 1016.5
20260505065904 26 123 12.9 22.5 0.00 0.00 0.00 72 1016.5
20260505065404 27 76 12.9 20.9 0.00 0.00 0.00 71 1016.6
20260505064905 26 95 11.3 24.1 0.00 0.00 0.00 71 1016.7
20260505063905 27 105 11.3 22.5 0.00 0.00 0.00 70 1016.7
20260505062904 26 98 11.3 22.5 0.00 0.00 0.00 70 1016.8
20260505062404 26 101 14.5 32.2 0.00 0.00 0.00 69 1016.9
20260505061904 26 92 9.7 22.5 0.00 0.00 0.00 71 1016.9
20260505061405 26 133 16.1 25.7 0.00 0.00 0.00 70 1016.9
20260505060404 26 112 8.0 19.3 0.00 0.00 0.00 74 1017.0
20260505055904 26 118 4.8 19.3 0.00 0.00 0.00 73 1017.0
20260505055403 26 95 9.7 20.9 0.00 0.00 0.00 73 1017.0
20260505054904 26 105 8.0 22.5 0.00 0.00 0.00 72 1017.1
20260505054404 26 118 6.4 22.5 0.00 0.00 0.00 71 1017.0
20260505053904 26 122 11.3 24.1 0.00 0.00 0.00 70 1017.1
20260505052904 26 118 12.9 24.1 0.00 0.00 0.00 70 1017.2
20260505052404 26 92 11.3 24.1 0.00 0.00 0.00 70 1017.2
20260505051904 26 91 9.7 20.9 0.00 0.00 0.00 71 1017.2
20260505051404 26 98 11.3 19.3 0.00 0.00 0.00 71 1017.2
20260505050904 26 116 12.9 22.5 0.00 0.00 0.00 70 1017.3
20260505050404 26 72 9.7 24.1 0.00 0.00 0.00 71 1017.2
20260505041404 23 156 1.6 8.0 0.00 0.00 0.00 79 1017.0
20260505040904 23 153 0.0 1.6 0.00 0.00 0.00 80 1016.9
20260505040404 22 153 1.6 4.8 0.00 0.00 0.00 80 1016.8
20260505035904 22 156 0.0 0.0 0.00 0.00 0.00 80 1016.8
20260505034905 22 161 1.6 4.8 0.00 0.00 0.00 80 1016.7
20260505034404 22 135 1.6 4.8 0.00 0.00 0.00 80 1016.6
20260505033904 22 165 1.6 8.0 0.00 0.00 0.00 80 1016.6
20260505033404 22 156 1.6 4.8 0.00 0.00 0.00 80 1016.5
20260505032904 22 163 0.0 0.0 0.00 0.00 0.00 80 1016.5
20260505032404 22 159 1.6 8.0 0.00 0.00 0.00 80 1016.4
20260505031904 22 157 0.0 8.0 0.00 0.00 0.00 81 1016.4
20260505031404 21 159 0.0 4.8 0.00 0.00 0.00 81 1016.4
20260505030404 21 175 0.0 1.6 0.00 0.00 0.00 82 1016.4
20260505025404 21 178 0.0 4.8 0.00 0.00 0.00 83 1016.2
20260505024904 21 176 0.0 8.0 0.00 0.00 0.00 83 1016.2
20260505024404 21 173 0.0 9.7 0.00 0.00 0.00 83 1016.2
20260505023904 21 180 0.0 8.0 0.00 0.00 0.00 83 1016.1
20260505023403 21 180 1.6 4.8 0.00 0.00 0.00 83 1016.0
20260505022905 21 180 0.0 4.8 0.00 0.00 0.00 83 1016.0
20260505022404 21 174 0.0 4.8 0.00 0.00 0.00 83 1016.0
20260505021403 21 156 0.0 3.2 0.00 0.00 0.00 83 1016.0
20260505020904 21 162 0.0 4.8 0.00 0.00 0.00 83 1015.9
20260505020404 21 173 0.0 3.2 0.00 0.00 0.00 83 1015.9
20260505015904 21 190 0.0 4.8 0.00 0.00 0.00 83 1015.8
20260505015404 21 171 1.6 9.7 0.00 0.00 0.00 83 1015.8
20260505014404 21 177 0.0 4.8 0.00 0.00 0.00 84 1015.8
20260505013904 21 183 0.0 3.2 0.00 0.00 0.00 84 1015.8
20260505013404 21 187 0.0 4.8 0.00 0.00 0.00 84 1015.7
20260505012904 21 182 0.0 3.2 0.00 0.00 0.00 84 1015.7
20260505012404 21 163 0.0 4.8 0.00 0.00 0.00 83 1015.6
20260505011904 21 164 1.6 4.8 0.00 0.00 0.00 83 1015.6
20260505011404 21 172 0.0 8.0 0.00 0.00 0.00 83 1015.6
20260505010904 21 168 0.0 3.2 0.00 0.00 0.00 83 1015.6
20260505010404 21 182 0.0 0.0 0.00 0.00 0.00 83 1015.6
20260505005904 21 156 0.0 1.6 0.00 0.00 0.00 83 1015.6
20260505005404 21 167 0.0 4.8 0.00 0.00 0.00 83 1015.6
20260505004904 21 167 0.0 3.2 0.00 0.00 0.00 83 1015.6
20260505004404 21 188 0.0 8.0 0.00 0.00 0.00 83 1015.6
20260505003404 21 168 0.0 9.7 0.00 0.00 0.00 83 1015.6
20260505002904 21 169 0.0 4.8 0.00 0.00 0.00 83 1015.7
20260505001904 21 169 0.0 4.8 0.00 0.00 0.00 83 1015.7
20260505001405 21 162 0.0 0.0 0.00 0.00 0.00 83 1015.7
20260505000405 21 185 0.0 4.8 0.00 0.00 0.00 83 1015.8
20260504235904 21 128 0.0 4.8 0.00 0.00 0.00 83 1015.8
20260504235404 21 169 0.0 4.8 0.00 0.00 0.00 83 1015.9
20260504234904 21 166 0.0 1.6 0.00 0.00 0.00 83 1015.8
20260504234404 21 129 0.0 1.6 0.00 0.00 0.00 83 1015.9
20260504233904 21 153 0.0 1.6 0.00 0.00 0.00 83 1015.8
20260504233404 21 165 0.0 0.0 0.00 0.00 0.00 83 1015.9
20260504232904 21 160 0.0 0.0 0.00 0.00 0.00 83 1015.8
20260504232405 21 158 0.0 0.0 0.00 0.00 0.00 83 1015.9
20260504231904 21 158 0.0 0.0 0.00 0.00 0.00 83 1015.9
20260504231404 21 175 0.0 3.2 0.00 0.00 0.00 83 1015.9
20260504230904 21 182 1.6 4.8 0.00 0.00 0.00 83 1015.9
20260504230404 21 185 0.0 0.0 0.00 0.00 0.00 83 1016.0
20260504225404 21 181 0.0 3.2 0.00 0.00 0.00 83 1016.0
20260504224904 21 183 0.0 0.0 0.00 0.00 0.00 83 1016.0
20260504224404 21 183 0.0 0.0 0.00 0.00 0.00 83 1016.0
20260504223904 21 148 0.0 1.6 0.00 0.00 0.00 83 1016.0
20260504223405 21 178 0.0 3.2 0.00 0.00 0.00 83 1016.1
20260504222904 21 155 0.0 0.0 0.00 0.00 0.00 83 1016.2
20260504222404 21 182 0.0 0.0 0.00 0.00 0.00 83 1016.2
20260504221905 21 172 0.0 0.0 0.00 0.00 0.00 83 1016.2
20260504221404 21 193 0.0 4.8 0.00 0.00 0.00 83 1016.3
20260504220405 21 179 0.0 4.8 0.00 0.00 0.00 82 1016.3
20260504215904 21 170 0.0 0.0 0.00 0.00 0.00 82 1016.4
20260504215404 21 174 0.0 0.0 0.00 0.00 0.00 82 1016.4
20260504214405 21 173 0.0 1.6 0.00 0.00 0.00 82 1016.6
20260504213904 21 174 0.0 3.2 0.00 0.00 0.00 82 1016.6
20260504213404 21 146 0.0 9.7 0.00 0.00 0.00 82 1016.6
20260504212404 21 178 1.6 8.0 0.00 0.00 0.00 82 1016.6
20260504211904 21 163 1.6 8.0 0.00 0.00 0.00 82 1016.6
20260504210904 21 170 1.6 12.9 0.00 0.00 0.00 82 1016.6
20260504205904 21 172 0.0 8.0 0.00 0.00 0.00 82 1016.7
20260504205404 21 180 3.2 8.0 0.00 0.00 0.00 83 1016.7
20260504204904 21 184 1.6 4.8 0.00 0.00 0.00 83 1016.8
20260504204404 21 186 0.0 4.8 0.00 0.00 0.00 83 1016.7
20260504203404 21 181 0.0 4.8 0.00 0.00 0.00 83 1016.7
20260504202904 21 184 3.2 8.0 0.00 0.00 0.00 83 1016.9
20260504202404 21 178 0.0 11.3 0.00 0.00 0.00 83 1016.9
20260504201904 21 166 0.0 3.2 0.00 0.00 0.00 83 1016.9
20260504200904 21 166 0.0 4.8 0.00 0.00 0.00 82 1017.0
20260504200404 21 184 1.6 9.7 0.00 0.00 0.00 82 1017.0
20260504195905 21 180 0.0 4.8 0.00 0.00 0.00 82 1017.0
20260504194904 21 158 1.6 9.7 0.00 0.00 0.00 82 1017.1
20260504194404 21 178 1.6 8.0 0.00 0.00 0.00 82 1017.1
20260504193904 21 158 0.0 4.8 0.00 0.00 0.00 82 1017.1
20260504193404 21 161 0.0 4.8 0.00 0.00 0.00 82 1017.1
20260504192904 21 166 1.6 8.0 0.00 0.00 0.00 82 1017.2
20260504192404 22 187 0.0 4.8 0.00 0.00 0.00 82 1017.2
20260504191905 22 189 3.2 11.3 0.00 0.00 0.00 82 1017.1
20260504190904 22 186 1.6 8.0 0.00 0.00 0.00 81 1017.1
20260504185404 22 161 1.6 14.5 0.00 0.00 0.00 82 1017.0
20260504184404 21 186 0.0 4.8 0.00 0.00 0.00 82 1017.0
20260504183904 21 183 0.0 4.8 0.00 0.00 0.00 82 1017.0
20260504183405 22 166 0.0 4.8 0.00 0.00 0.00 82 1017.1
20260504182904 22 192 0.0 4.8 0.00 0.00 0.00 82 1017.0
20260504182404 22 169 0.0 1.6 0.00 0.00 0.00 81 1017.0
20260504181904 22 187 1.6 8.0 0.00 0.00 0.00 82 1017.1
20260504181404 22 187 1.6 8.0 0.00 0.00 0.00 82 1017.0
20260504180904 21 183 1.6 8.0 0.00 0.00 0.00 82 1017.0
20260504180404 22 188 0.0 1.6 0.00 0.00 0.00 82 1017.0
20260504175904 22 181 0.0 1.6 0.00 0.00 0.00 82 1017.0
20260504175404 22 180 0.0 1.6 0.00 0.00 0.00 82 1017.0
20260504174904 22 197 0.0 1.6 0.00 0.00 0.00 82 1017.0
20260504174405 22 178 0.0 1.6 0.00 0.00 0.00 82 1017.0
20260504173904 22 199 0.0 3.2 0.00 0.00 0.00 82 1017.0
20260504173404 21 161 1.6 9.7 0.00 0.00 0.00 82 1017.0
20260504172904 22 185 0.0 4.8 0.00 0.00 0.00 82 1017.0
20260504172404 22 178 0.0 1.6 0.00 0.00 0.00 82 1017.1
20260504171904 22 185 0.0 0.0 0.00 0.00 0.00 82 1017.1
20260504171404 22 189 0.0 1.6 0.00 0.00 0.00 82 1017.1
20260504170904 22 182 0.0 3.2 0.00 0.00 0.00 82 1017.1
20260504170404 22 183 0.0 0.0 0.00 0.00 0.00 82 1017.1